Regional Weather Roundup
Issued by NWS

Home | Current Version | Previous Version | Graphics & Text | Print | Product List | Glossary Off
Versions: 1 2 3 4 5 6 7 8 9 10 11 12 13 14 15 16 17 18 19 20 21 22 23 24 25 26 27 28 29 30 31 32 33 34 35 36 37 38 39 40 41 42 43 44 45 46 47 48 49 50

587
ASUS43 KDMX 120406
RWRIA

WEATHER ROUNDUP FOR IOWA
NATIONAL WEATHER SERVICE DES MOINES IA
1000 PM CST MON DEC 11 2017

NOTE: "FAIR" INDICATES FEW OR NO CLOUDS BELOW 12,000 FEET WITH NO
SIGNIFICANT WEATHER AND/OR OBSTRUCTIONS TO VISIBILITY.

* - THESE STATIONS ARE NOT NWS STATIONS...THUS NOT UNDER NWS
QUALITY CONTROL.  THEY ALSO DO NOT REPORT WEATHER SUCH
AS PRECIPITATION OR FOG.

IAZ001>003-012>014-020>022-031>034-043>046-120500-
   NORTHWEST IOWA

CITY           SKY/WX    TMP DP  RH WIND       PRES   REMARKS
CARROLL *      CLEAR     21  14  73 N28G35    30.26R WCI   3
CHEROKEE *     CLEAR     20  15  78 N12G18    30.30R WCI   8
DENISON *      CLEAR     23  18  80 N10G20    30.30R WCI  12
LE MARS *      CLEAR     21  16  79 N14G20    30.33R WCI   8
ORANGE CITY *  CLEAR     21  16  79 N17       30.30R WCI   7
SHELDON *      CLEAR     18  12  79 N17G24    30.29R WCI   2
SIOUX CITY     CLEAR     24  17  74 N14G21    30.33R WCI  12
SPENCER        CLEAR     18  11  74 N22       30.27R WCI   1
STORM LAKE *   CLEAR     19  12  73 N16G23    30.26S WCI   5
$$

IAZ055>058-069>071-079>083-090>094-120500-
   SOUTHWEST IOWA

CITY           SKY/WX    TMP DP  RH WIND       PRES   REMARKS
ATLANTIC *     CLEAR     27  18  69 N20G26    30.25R WCI  13
AUDUBON *      CLEAR     25  19  80 N16G23    30.25R WCI  12
CLARINDA *       N/A     30  23  74 N17G23      N/A  WCI  18
COUNCIL BLFS * CLEAR     28  23  80 NW21G30   30.27R WCI  15
CRESTON *      PTCLDY    27  19  74 N22G30    30.21S WCI  12
HARLAN  *      CLEAR     27  18  69 N22       30.30R WCI  12
LAMONI         MOCLDY    28  18  66 N13       30.19R WCI  17
RED OAK *      CLEAR     30  23  74 N17G23    30.27R WCI  18
SHENANDOAH *   CLEAR     32  25  74 N14       30.28R WCI  22
$$

IAZ047>049-059>061-072>074-084-120500-
   CENTRAL IOWA

CITY           SKY/WX    TMP DP  RH WIND       PRES   REMARKS
AMES           CLOUDY    24  16  71 N25G33    30.21R WCI   8
ANKENY *       CLOUDY    25  16  68 N23G35    30.22R WCI  10
BOONE *        CLOUDY    23  16  74 NW23G33   30.20R WCI   7
CHARITON *     CLOUDY    28  19  69 NW22G30   30.17R WCI  15
DES MOINES     MOCLDY    27  17  66 NW16G24   30.20R WCI  15
GRINNELL*      CLOUDY    29  22  74 NW24      30.13R WCI  15
KNOXVILLE *    CLOUDY    28  18  64 NW24      30.15R WCI  14
MARSHALLTOWN   CLOUDY    27  20  75 NW18G30   30.14R WCI  14
NEWTON *       CLOUDY    28  19  69 NW28      30.16R WCI  13
PELLA *        CLOUDY    30  20  67 NW17G25   30.17R WCI  18
PERRY *          N/A     23  15  72 NW22G29   30.24R WCI   7
$$

IAZ004>006-015-016-023>025-035-036-120500-
   NORTH CENTRAL IOWA

CITY           SKY/WX    TMP DP  RH WIND       PRES   REMARKS
ALGONA *       PTCLDY    18  16  93 NW15G24   30.22R WCI   3
CLARION *      CLOUDY    23  18  80 NW25G32   30.20R WCI   7
ESTHERVILLE    CLEAR     15  11  83 NW17      30.24S WCI  -1
FORT DODGE *   CLOUDY    21  14  74 NW16G25   30.24R WCI   7
MASON CITY     CLOUDY    23  15  71 N22       30.18R WCI   8
FOREST CITY *  MOCLDY    23  19  86 NW20G25   30.19R WCI   8
WEBSTER CITY * CLOUDY    23  14  68 NW26G35   30.20R WCI   6
IOWA FALLS *   CLOUDY    27  20  76 NW23G30   30.17R WCI  12
$$

IAZ007>011-017>019-026>030-037>042-050>054-066-120500-
   NORTHEAST IOWA

CITY           SKY/WX    TMP DP  RH WIND       PRES   REMARKS
CEDAR RAPIDS   CLOUDY    32  23  69 NW25G35   30.06R WCI  19
CHARLES CITY * MOCLDY    25  16  68 NW21G32   30.14R WCI  10
CLINTON *      CLOUDY    32  27  81 N17       30.00R WCI  21
DECORAH *      PTCLDY    23  14  68 NW21G32   30.07R WCI   8
DUBUQUE        CLOUDY    30  20  66 NW21      29.99R WCI  17
MONTICELLO *   CLOUDY    32  21  64 NW24G35   30.03R WCI  19
OELWEIN *      CLOUDY    27  19  74 N21G33    30.09R WCI  13
WATERLOO       CLEAR     25  15  66 N25G36    30.12R WCI   9
$$

IAZ064-065-067-068-078-120500-
   EAST CENTRAL IOWA

CITY           SKY/WX    TMP DP  RH WIND       PRES   REMARKS
DAVENPORT      CLOUDY    33  25  72 NW20G29   30.03R WCI  21
IOWA CITY      CLOUDY    36  25  64 NW14G23   30.07R WCI  27
MT. PLEASANT * CLOUDY    34  26  70 NW21G26   30.07R WCI  23
MUSCATINE *    CLOUDY    36  25  64 N16G25    30.06R WCI  26
QUAD CITIES    CLOUDY    35  26  69 NW20G28   30.00R WCI  24
$$

IAZ062-063-075>077-085>089-095>099-120500-
   SOUTHEAST IOWA

CITY           SKY/WX    TMP DP  RH WIND       PRES   REMARKS
BURLINGTON     CLOUDY    36  30  79 NW21G33   30.05R WCI  25
FAIRFIELD *    CLOUDY    36  25  64 NW26G36   30.08R WCI  23
FORT MADISON * CLOUDY    36  28  75 NW22G31   30.07R WCI  24
KEOKUK *       CLOUDY    37  30  75 NW16G32   30.07R WCI  28
OSKALOOSA *    CLOUDY    32  23  69 NW23G35   30.13R WCI  19
OTTUMWA        CLOUDY    33  23  66 NW28G38   30.13R WCI  20
WASHINGTON *   CLOUDY    34  27  75 NW31G43   30.09R WCI  20
$$

ABBREVIATIONS USED IN REMARKS
   TC - TEMPERATURES IN CELSIUS
  WCI - WIND CHILL INDEX
   HX - HEAT INDEX
  VSB - VISIBILITY
$$





USA.gov is the U.S. government's official web portal to all federal, state and local government web resources and services.